Date String (YYYY-MM-DD hh:mm:ss) UTC,Instrument flags,Ambient pressure (hPa),Sample flow (lpm),Bypass flow (lpm),Sample temperature (°C),Ambient temperature (°C),ASC tube jacket temperature (°C),LED temperature (°C),Box temperature (°C),Sample RH (%),Span deviation,Mass concentration (μg/m³),Mass concentration (μg/m³),Mass concentration (μg/m³)
DateTimeUTC,F1_M11,P_M11,Q1_M11,Q2_M11,T1_M11,T2_M11,T3_M11,T4_M11,T5_M11,U1_M11,ZSPAN_M11,X0_M11,X2_M11,X1_M11
2022-03-08 05:00:00,,0825.6,5.00,0.00,22.1,21.9,00.0,31.1,23.9,08.6,0000.8,0010.01,0007.07,0006.63
2022-03-08 05:01:00,,0825.5,5.00,0.00,22.2,22.7,00.0,31.2,24.2,08.5,0001.1,0010.24,0007.14,0006.69
2022-03-08 05:02:00,,0825.5,5.00,0.00,22.4,23.0,00.0,31.2,24.3,08.4,0001.2,0010.35,0007.22,0006.75
2022-03-08 05:03:00,,0825.5,5.00,0.00,22.4,22.8,00.0,31.2,24.3,08.3,0000.8,0010.89,0007.30,0006.82
2022-03-08 05:04:00,,0825.5,4.99,0.00,22.4,22.6,00.0,31.2,24.3,08.4,0001.0,0011.50,0007.32,0006.84
2022-03-08 05:05:00,,0825.5,5.00,0.00,22.4,22.3,00.0,31.2,24.2,08.5,0001.0,0011.44,0007.28,0006.82
2022-03-08 05:06:00,,0825.5,5.00,0.00,22.4,22.2,00.0,31.2,24.1,08.6,0000.9,0011.29,0007.27,0006.82
2022-03-08 05:07:00,,0825.5,5.00,0.00,22.3,22.0,00.0,31.3,24.1,08.7,0000.7,0011.27,0007.28,0006.83
2022-03-08 05:08:00,,0825.5,5.01,0.00,22.3,21.9,00.0,31.3,24.0,08.7,0000.5,0011.21,0007.25,0006.82
2022-03-08 05:09:00,,0825.5,4.99,0.00,22.3,21.8,00.0,31.3,24.0,08.7,0000.2,0011.53,0007.27,0006.83
2022-03-08 05:10:00,,0825.5,4.99,0.00,22.2,21.7,00.0,31.3,23.9,08.7,-000.0,0012.04,0007.29,0006.84
2022-03-08 05:11:00,,0825.5,5.01,0.00,22.2,21.6,00.0,31.3,23.9,08.7,-000.1,0012.34,0007.26,0006.83
2022-03-08 05:12:00,,0825.5,5.00,0.00,22.2,21.5,00.0,31.2,23.8,08.8,-000.4,0012.22,0007.22,0006.77
2022-03-08 05:13:00,,0825.5,4.99,0.00,22.1,21.4,00.0,31.2,23.8,08.8,-000.3,0012.11,0007.17,0006.74
2022-03-08 05:14:00,,0825.5,5.01,0.00,22.1,21.3,00.0,31.2,23.7,08.8,0000.2,0011.75,0007.11,0006.70
2022-03-08 05:15:00,,0825.5,5.00,0.00,22.0,21.2,00.0,31.2,23.7,08.8,0000.0,0010.85,0007.05,0006.66
2022-03-08 05:16:00,,0825.5,4.99,0.00,22.0,21.2,00.0,31.2,23.7,08.8,-000.1,0010.83,0007.05,0006.67
2022-03-08 05:17:00,,0825.5,5.00,0.00,22.1,21.8,00.0,31.2,23.8,08.8,-000.0,0010.81,0007.05,0006.68
2022-03-08 05:18:00,,0825.5,5.01,0.00,22.2,22.5,00.0,31.2,24.0,08.7,-000.2,0010.80,0007.07,0006.72
2022-03-08 05:19:00,,0825.5,5.00,0.00,22.3,22.9,00.0,31.2,24.2,08.6,0000.1,0010.89,0007.12,0006.75
2022-03-08 05:20:00,,0825.5,4.99,0.00,22.3,22.7,00.0,31.2,24.2,08.5,0000.5,0010.62,0007.13,0006.79
2022-03-08 05:21:00,,0825.5,5.01,0.00,22.3,22.5,00.0,31.2,24.2,08.5,0000.9,0010.34,0007.16,0006.83
2022-03-08 05:22:00,,0825.4,5.01,0.00,22.3,22.3,00.0,31.3,24.2,08.5,0001.2,0010.21,0007.20,0006.87
2022-03-08 05:23:00,,0825.4,5.00,0.00,22.3,22.1,00.0,31.3,24.1,08.5,0001.4,0010.13,0007.22,0006.93
2022-03-08 05:24:00,,0825.4,4.99,0.00,22.3,22.0,00.0,31.3,24.0,08.5,0001.6,0010.22,0007.26,0006.97
2022-03-08 05:25:00,,0825.3,5.00,0.00,22.3,21.8,00.0,31.3,24.0,08.5,0000.8,0010.33,0007.33,0007.02
2022-03-08 05:26:00,,0825.3,4.99,0.00,22.2,21.7,00.0,31.2,23.9,08.5,0001.2,0010.39,0007.39,0007.07
2022-03-08 05:27:00,,0825.4,5.00,0.00,22.2,21.6,00.0,31.2,23.9,08.5,0001.3,0011.03,0007.44,0007.12
2022-03-08 05:28:00,,0825.4,5.01,0.00,22.2,21.5,00.0,31.2,23.8,08.5,0000.8,0011.37,0007.51,0007.16
2022-03-08 05:29:00,,0825.4,4.99,0.00,22.1,21.5,00.0,31.2,23.8,08.5,0001.0,0011.61,0007.55,0007.19
2022-03-08 05:30:00,,0825.3,5.00,0.00,22.1,21.4,00.0,31.2,23.8,08.5,0000.9,0012.19,0007.60,0007.23
2022-03-08 05:31:00,,0825.3,5.00,0.00,22.1,21.4,00.0,31.2,23.8,08.4,0000.9,0012.24,0007.63,0007.27
2022-03-08 05:32:00,,0825.3,5.00,0.00,22.1,21.4,00.0,31.2,23.8,08.4,0000.6,0012.25,0007.63,0007.28
2022-03-08 05:33:00,,0825.3,5.01,0.00,22.1,21.3,00.0,31.2,23.8,08.5,0000.3,0011.92,0007.66,0007.30
2022-03-08 05:34:00,,0825.3,4.99,0.00,22.1,21.3,00.0,31.1,23.8,08.5,-000.2,0012.39,0007.68,0007.29
2022-03-08 05:35:00,,0825.3,5.00,0.00,22.1,21.8,00.0,31.2,23.9,08.6,-000.2,0012.51,0007.62,0007.25
2022-03-08 05:36:00,,0825.3,4.98,0.00,22.2,22.5,00.0,31.2,24.1,08.5,0000.3,0012.76,0007.65,0007.26
2022-03-08 05:37:00,,0825.3,5.01,0.00,22.4,23.0,00.0,31.3,24.3,08.4,0000.3,0013.31,0007.69,0007.28
2022-03-08 05:38:00,,0825.3,4.99,0.00,22.5,22.9,00.0,31.3,24.4,08.3,0000.4,0012.90,0007.74,0007.31
2022-03-08 05:39:00,,0825.3,5.00,0.00,22.5,22.7,00.0,31.3,24.3,08.2,0000.5,0012.68,0007.77,0007.34
2022-03-08 05:40:00,,0825.3,5.01,0.00,22.4,22.5,00.0,31.3,24.2,08.2,0000.6,0012.50,0007.80,0007.38
2022-03-08 05:41:00,,0825.3,5.00,0.00,22.4,22.2,00.0,31.3,24.2,08.2,0000.6,0012.09,0007.80,0007.40
2022-03-08 05:42:00,,0825.2,4.99,0.00,22.4,22.1,00.0,31.3,24.1,08.2,0000.6,0011.98,0007.86,0007.42
2022-03-08 05:43:00,,0825.2,5.00,0.00,22.3,21.9,00.0,31.3,24.0,08.4,0000.6,0011.97,0007.85,0007.40
2022-03-08 05:44:00,,0825.2,5.00,0.00,22.3,21.7,00.0,31.3,23.9,08.5,0000.4,0012.57,0007.80,0007.34
2022-03-08 05:45:00,,0825.2,5.00,0.00,22.2,21.5,00.0,31.3,23.8,08.5,0000.2,0012.32,0007.77,0007.32
2022-03-08 05:46:00,,0825.2,5.01,0.00,22.2,21.5,00.0,31.3,23.8,08.6,0000.1,0012.24,0007.76,0007.30
2022-03-08 05:47:00,,0825.3,4.99,0.00,22.1,21.4,00.0,31.2,23.8,08.6,0000.1,0012.00,0007.74,0007.25
2022-03-08 05:48:00,,0825.2,5.01,0.00,22.1,21.3,00.0,31.2,23.7,08.6,-000.3,0011.79,0007.70,0007.18
2022-03-08 05:49:00,,0825.2,4.99,0.00,22.0,21.2,00.0,31.2,23.6,08.5,-000.3,0012.08,0007.62,0007.12
2022-03-08 05:50:00,,0825.1,5.00,0.00,22.0,21.4,00.0,31.2,23.7,08.5,-000.3,0012.01,0007.57,0007.07
2022-03-08 05:51:00,,0825.1,5.01,0.00,22.1,22.1,00.0,31.2,23.9,08.4,-000.5,0011.91,0007.51,0007.02
2022-03-08 05:52:00,,0825.1,5.00,0.00,22.3,22.8,00.0,31.3,24.2,08.3,-000.3,0011.89,0007.49,0006.98
2022-03-08 05:53:00,,0825.2,5.00,0.00,22.4,22.9,00.0,31.3,24.3,08.2,-000.4,0012.07,0007.47,0006.94
2022-03-08 05:54:00,,0825.1,5.01,0.00,22.4,22.7,00.0,31.3,24.2,08.3,0000.2,0012.47,0007.49,0006.94
2022-03-08 05:55:00,,0825.1,5.00,0.00,22.3,22.4,00.0,31.3,24.1,08.3,0001.0,0011.95,0007.50,0006.94
2022-03-08 05:56:00,,0825.1,5.00,0.00,22.3,22.2,00.0,31.3,24.0,08.3,0001.9,0011.76,0007.50,0006.94
2022-03-08 05:57:00,,0825.1,4.99,0.00,22.3,22.0,00.0,31.3,23.9,08.4,0002.0,0011.69,0007.53,0006.97
2022-03-08 05:58:00,,0825.0,5.00,0.00,22.2,21.8,00.0,31.3,23.9,08.4,0002.2,0011.59,0007.52,0006.98
2022-03-08 05:59:00,,0825.0,5.00,0.00,22.2,21.6,00.0,31.3,23.9,08.4,0002.6,0011.52,0007.52,0006.99
